Temp
-6 -6 -6 -6 -6 -6 -6 -6 -6 -6 -6 -6 -6 -6 -6 -6 -6 -6 -6 -6 -6 -6 -6 -6 -6 -6 -6 -6 -6 -6 -6 -6 -6 -6 -6 -6 -6 -6 -6 -6 -6 -6 -6 -6 -6 -6 -6 -6 -6
-5 -6 -6 -6 -5 -6 -6 -6 -6 -6 -6 -6 -5 -5 -6 -6 -6 -6 -6 -6 -6 -6 -6 -6 -6 -6 -6 -6 -6 -6 -6 -6 -6 -6 -6 -7 -7 -7 -6 -7 -7 -7 -7 -6 -6 -6 -6 -6 -6
-5 -5 -5 -5 -5 -5 -5 -6 -5 -5 -5 -5 -6 -5 -6 -6 -5 -6 -6 -6 -6 -6 -6 -6 -6 -6 -6 -6 -6 -7 -6 -6 -6 -6 -6 -6 -6 -7 -7 -7 -7 -7 -7 -7 -7 -7 -7 -7 -7
-5 -5 -5 -5 -5 -5 -5 -6 -5 -5 -6 -6 -6 -6 -6 -6 -6 -6 -7 -7 -6 -6 -6 -6 -6 -6 -6 -6 -6 -7 -7 -7 -7 -6 -6 -6 -6 -6 -6 -7 -7 -7 -7 -7 -7 -7 -7 -7 -7
-5 -5 -5 -5 -5 -5 -5 -5 -5 -4 -5 -5 -5 -5 -5 -6 -6 -6 -6 -6 -7 -7 -6 -6 -6 -6 -6 -6 -7 -7 -7 -7 -7 -7 -6 -6 -6 -6 -6 -6 -6 -6 -7 -7 -7 -7 -7 -7 -7
-5 -5 -5 -5 -5 -5 -6 -6 -5 -5 -5 -5 -5 -5 -5 -5 -6 -6 -5 -6 -6 -6 -6 -6 -6 -6 -6 -7 -7 -7 -7 -7 -7 -7 -7 -7 -7 -7 -7 -7 -7 -7 -7 -7 -7 -7 -7 -7 -7
-5 -5 -5 -5 -5 -5 -6 -6 -5 -5 -6 -5 -5 -5 -5 -6 -6 -6 -7 -7 -7 -6 -6 -6 -6 -7 -7 -7 -7 -7 -7 -7 -7 -7 -7 -7 -7 -7 -7 -8 -7 -7 -7 -7 -8 -8 -8 -7 -7
-5 -5 -5 -5 -5 -6 -6 -6 -6 -6 -6 -6 -6 -5 -5 -5 -6 -6 -6 -6 -7 -7 -8 -7 -7 -7 -7 -7 -7 -7 -7 -7 -7 -7 -8 -8 -8 -7 -8 -8 -8 -8 -8 -8 -7 -8 -8 -8 -8
-5 -5 -5 -5 -5 -6 -6 -5 -6 -6 -6 -6 -6 -6 -5 -6 -6 -6 -6 -6 -7 -7 -7 -8 -8 -8 -7 -8 -8 -8 -8 -8 -8 -8 -8 -8 -8 -8 -8 -8 -8 -8 -8 -8 -8 -8 -8 -8 -8
-5 -5 -6 -6 -6 -6 -6 -6 -6 -7 -7 -7 -7 -7 -7 -7 -6 -6 -6 -6 -6 -7 -7 -7 -8 -8 -8 -8 -8 -8 -8 -8 -8 -8 -8 -8 -8 -8 -8 -9 -8 -8 -9 -9 -9 -9 -9 -9 -8
-6 -6 -6 -6 -6 -6 -6 -6 -7 -7 -7 -7 -7 -7 -7 -7 -7 -7 -7 -7 -7 -7 -8 -8 -8 -8 -8 -8 -8 -9 -8 -8 -8 -8 -9 -9 -9 -8 -8 -9 -9 -9 -9 -9 -9 -9 -10 -10 -9
-6 -6 -6 -7 -7 -7 -7 -7 -7 -7 -7 -8 -8 -8 -8 -8 -8 -8 -8 -8 -8 -8 -8 -9 -9 -9 -9 -9 -9 -9 -9 -9 -9 -9 -9 -9 -9 -9 -9 -9 -9 -9 -9 -10 -10 -10 -10 -10 -10
-7 -7 -7 -7 -7 -7 -7 -8 -8 -8 -8 -8 -8 -8 -8 -8 -8 -8 -9 -9 -9 -8 -8 -8 -9 -9 -9 -10 -10 -9 -9 -10 -10 -10 -10 -10 -10 -10 -10 -10 -10 -9 -10 -10 -9 -9 -10 -10 -10
-7 -7 -7 -7 -8 -8 -8 -8 -8 -8 -8 -9 -9 -8 -8 -9 -9 -9 -9 -9 -9 -9 -9 -9 -9 -9 -9 -9 -9 -10 -10 -10 -10 -11 -11 -10 -10 -10 -10 -10 -10 -10 -10 -10 -10 -10 -10 -11 -11
-7 -8 -8 -8 -8 -8 -8 -8 -9 -9 -9 -9 -9 -9 -9 -9 -9 -9 -9 -9 -10 -10 -11 -10 -10 -10 -9 -10 -10 -10 -10 -10 -10 -11 -12 -11 -11 -11 -11 -11 -11 -12 -11 -10 -11 -11 -11 -11 -11
-8 -8 -8 -9 -9 -9 -9 -8 -9 -9 -9 -9 -9 -9 -9 -9 -9 -9 -9 -9 -10 -10 -10 -10 -10 -10 -10 -10 -10 -10 -11 -11 -11 -12 -12 -11 -11 -11 -11 -11 -12 -12 -12 -11 -11 -11 -11 -11 -11
-9 -9 -9 -9 -9 -9 -9 -8 -9 -9 -9 -9 -10 -10 -10 -10 -9 -9 -9 -10 -10 -11 -11 -10 -10 -11 -11 -11 -11 -11 -11 -11 -12 -12 -12 -12 -11 -11 -11 -11 -11 -11 -11 -12 -11 -12 -12 -12 -12
-9 -9 -9 -9 -9 -9 -9 -9 -9 -10 -10 -10 -10 -10 -10 -10 -9 -9 -10 -10 -11 -11 -11 -12 -11 -11 -12 -12 -12 -12 -12 -12 -12 -12 -12 -11 -11 -11 -11 -11 -11 -12 -12 -12 -12 -12 -12 -12 -12
-9 -9 -9 -9 -10 -9 -9 -9 -10 -10 -10 -10 -11 -11 -11 -11 -10 -10 -10 -11 -12 -12 -12 -12 -13 -12 -12 -13 -13 -13 -13 -13 -13 -12 -12 -12 -12 -11 -12 -12 -12 -12 -12 -12 -12 -12 -12 -13 -12
-10 -10 -9 -10 -10 -10 -10 -9 -10 -11 -11 -11 -11 -12 -11 -11 -11 -11 -11 -12 -12 -13 -13 -13 -14 -16 -15 -14 -14 -14 -14 -13 -13 -13 -12 -12 -12 -12 -13 -13 -12 -13 -13 -12 -12 -12 -12 -13 -13
-10 -10 -10 -10 -10 -10 -10 -10 -10 -11 -12 -12 -12 -12 -13 -13 -13 -13 -13 -13 -14 -15 -15 -15 -16 -17 -16 -16 -15 -15 -15 -14 -13 -13 -13 -13 -13 -13 -13 -13 -13 -13 -12 -12 -12 -12 -13 -13 -14
-10 -10 -11 -11 -11 -11 -11 -10 -10 -11 -12 -12 -12 -13 -13 -14 -14 -15 -15 -16 -16 -16 -16 -16 -17 -17 -18 -17 -16 -16 -15 -15 -14 -14 -13 -14 -14 -14 -13 -13 -13 -13 -12 -12 -12 -12 -13 -14 -14
-11 -11 -11 -12 -12 -12 -12 -13 -11 -12 -13 -13 -13 -14 -14 -16 -17 -17 -18 -18 -18 -17 -18 -18 -18 -18 -18 -18 -17 -17 -16 -16 -15 -15 -14 -14 -14 -14 -14 -14 -13 -14 -13 -13 -12 -12 -13 -14 -14
-11 -12 -13 -13 -13 -12 -13 -15 -13 -14 -15 -15 -16 -16 -17 -17 -18 -18 -18 -19 -19 -19 -19 -18 -18 -18 -18 -18 -17 -17 -17 -16 -16 -16 -15 -15 -15 -15 -15 -14 -14 -14 -13 -12 -12 -12 -13 -14 -14
-13 -14 -14 -13 -14 -14 -15 -16 -17 -18 -18 -19 -19 -19 -20 -20 -20 -20 -20 -19 -19 -19 -19 -18 -18 -17 -18 -18 -18 -17 -17 -17 -17 -16 -16 -16 -15 -15 -15 -15 -15 -14 -13 -12 -12 -12 -14 -14 -14
-13 -14 -17 -17 -16 -16 -15 -16 -18 -20 -20 -21 -22 -22 -22 -21 -21 -21 -21 -21 -20 -20 -20 -19 -18 -19 -18 -18 -18 -17 -17 -17 -17 -16 -16 -16 -16 -15 -15 -15 -13 -13 -14 -12 -13 -13 -14 -14 -14
-15 -16 -17 -19 -18 -19 -19 -19 -20 -21 -22 -23 -23 -23 -22 -22 -22 -21 -22 -21 -21 -21 -20 -20 -20 -20 -19 -19 -18 -17 -17 -18 -17 -17 -17 -16 -16 -16 -16 -15 -15 -14 -12 -13 -13 -13 -14 -14 -15
-17 -18 -18 -20 -21 -21 -21 -21 -22 -24 -24 -24 -24 -23 -23 -23 -22 -23 -22 -22 -22 -21 -21 -20 -20 -20 -20 -19 -18 -18 -18 -18 -18 -17 -17 -17 -16 -16 -16 -16 -15 -14 -13 -13 -13 -14 -14 -15 -15
-18 -19 -21 -21 -22 -23 -23 -22 -22 -24 -25 -24 -24 -24 -24 -23 -23 -23 -23 -23 -22 -21 -21 -21 -20 -20 -20 -20 -19 -19 -18 -18 -19 -18 -17 -17 -17 -16 -16 -15 -15 -14 -14 -13 -14 -14 -14 -15 -15
-20 -21 -22 -23 -22 -22 -24 -22 -24 -25 -26 -25 -25 -25 -25 -24 -24 -23 -23 -23 -23 -22 -22 -21 -21 -20 -20 -19 -19 -19 -19 -19 -19 -18 -17 -17 -17 -17 -16 -16 -14 -14 -13 -13 -14 -14 -14 -15 -15
Height
5880 5881 5882 5882 5883 5882 5880 5882 5881 5881 5881 5879 5879 5880 5880 5878 5877 5879 5878 5876 5876 5875 5875 5874 5873 5873 5872 5871 5870 5869 5870 5869 5868 5867 5866 5865 5864 5863 5862 5860 5859 5857 5856 5854 5853 5852 5851 5850 5849
5884 5883 5881 5881 5883 5881 5881 5881 5880 5880 5879 5878 5876 5880 5880 5878 5875 5876 5876 5873 5872 5872 5872 5871 5870 5869 5869 5868 5867 5867 5866 5866 5865 5864 5863 5862 5861 5860 5859 5858 5856 5855 5853 5852 5851 5850 5849 5848 5847
5885 5884 5883 5881 5880 5880 5881 5880 5879 5879 5879 5878 5877 5880 5879 5877 5874 5874 5875 5873 5870 5869 5868 5869 5869 5868 5867 5867 5866 5865 5863 5862 5861 5861 5859 5858 5858 5857 5856 5855 5853 5852 5851 5850 5848 5847 5846 5845 5844
5884 5884 5883 5881 5881 5881 5882 5880 5878 5878 5878 5875 5876 5879 5879 5877 5874 5873 5875 5873 5870 5868 5868 5867 5867 5867 5865 5863 5863 5862 5861 5861 5859 5858 5857 5856 5854 5853 5852 5851 5850 5849 5848 5847 5845 5844 5843 5841 5841
5884 5883 5881 5880 5880 5879 5878 5877 5875 5876 5875 5872 5872 5874 5874 5873 5871 5871 5874 5873 5871 5869 5868 5868 5867 5865 5864 5863 5861 5861 5860 5857 5856 5855 5853 5851 5849 5849 5848 5847 5846 5845 5845 5844 5842 5840 5839 5838 5838
5882 5881 5880 5879 5878 5878 5877 5875 5874 5875 5873 5871 5869 5870 5872 5871 5869 5867 5867 5868 5867 5866 5865 5865 5864 5863 5862 5860 5859 5858 5857 5855 5854 5853 5852 5849 5847 5845 5844 5843 5841 5841 5840 5839 5837 5836 5835 5834 5833
5881 5880 5879 5877 5876 5875 5874 5872 5871 5871 5870 5869 5867 5866 5868 5869 5868 5866 5862 5862 5862 5860 5859 5858 5858 5858 5858 5856 5855 5854 5852 5852 5850 5849 5848 5847 5845 5843 5841 5839 5837 5837 5836 5833 5832 5832 5831 5830 5829
5878 5877 5875 5875 5872 5872 5871 5868 5868 5866 5866 5865 5864 5861 5862 5863 5862 5861 5859 5859 5860 5857 5855 5853 5853 5853 5852 5851 5849 5848 5848 5847 5846 5844 5843 5842 5842 5840 5838 5836 5834 5832 5829 5828 5827 5826 5826 5825 5825
5874 5873 5872 5871 5870 5867 5866 5864 5864 5863 5861 5860 5857 5856 5854 5855 5854 5850 5851 5852 5853 5853 5851 5850 5849 5848 5847 5847 5845 5844 5843 5842 5840 5839 5838 5836 5835 5834 5833 5830 5828 5828 5827 5825 5823 5822 5822 5821 5821
5871 5870 5869 5867 5865 5864 5863 5861 5860 5860 5858 5854 5852 5851 5849 5848 5846 5845 5842 5841 5841 5843 5843 5843 5842 5840 5840 5840 5839 5838 5837 5836 5835 5833 5832 5831 5830 5829 5827 5826 5823 5821 5821 5820 5820 5819 5817 5816 5816
5867 5866 5865 5863 5861 5859 5857 5856 5856 5855 5852 5849 5850 5849 5845 5843 5841 5841 5838 5836 5837 5838 5838 5835 5833 5831 5830 5830 5830 5830 5829 5828 5825 5824 5824 5824 5823 5821 5820 5819 5818 5816 5814 5815 5815 5814 5813 5811 5810
5862 5860 5859 5857 5856 5854 5852 5850 5849 5848 5846 5846 5844 5843 5841 5836 5832 5831 5832 5832 5831 5830 5829 5828 5827 5825 5824 5821 5819 5819 5820 5818 5817 5815 5815 5815 5814 5813 5812 5811 5810 5809 5809 5808 5809 5810 5808 5807 5805
5858 5855 5853 5852 5850 5850 5848 5846 5846 5840 5840 5839 5836 5834 5833 5829 5824 5824 5822 5822 5822 5820 5817 5814 5814 5814 5813 5812 5811 5810 5809 5808 5804 5803 5803 5803 5805 5804 5803 5803 5803 5801 5801 5801 5802 5802 5801 5800 5800
5852 5851 5848 5846 5844 5843 5842 5840 5837 5835 5832 5831 5828 5826 5825 5821 5818 5815 5811 5810 5812 5810 5804 5803 5802 5802 5801 5800 5800 5800 5798 5797 5793 5792 5796 5796 5794 5797 5796 5797 5799 5796 5794 5792 5791 5791 5792 5793 5793
5845 5845 5841 5839 5836 5835 5833 5835 5829 5829 5826 5823 5821 5818 5814 5811 5809 5806 5803 5800 5801 5801 5795 5791 5791 5790 5790 5789 5789 5789 5786 5785 5785 5783 5781 5786 5787 5787 5788 5789 5788 5789 5787 5785 5787 5786 5787 5786 5786
5839 5838 5836 5833 5830 5827 5825 5827 5824 5819 5815 5812 5809 5807 5804 5796 5796 5795 5792 5790 5787 5785 5782 5777 5773 5776 5778 5777 5777 5777 5774 5773 5774 5768 5773 5778 5777 5779 5781 5780 5778 5779 5776 5775 5779 5779 5778 5778 5778
5831 5829 5827 5826 5821 5817 5815 5814 5812 5805 5800 5798 5793 5789 5787 5782 5779 5779 5779 5776 5773 5768 5767 5766 5762 5756 5758 5762 5764 5764 5764 5761 5762 5762 5763 5768 5770 5770 5774 5770 5767 5767 5765 5765 5767 5771 5770 5772 5772
5823 5820 5819 5816 5812 5805 5803 5803 5795 5789 5784 5781 5775 5770 5764 5760 5762 5762 5762 5759 5755 5750 5748 5748 5747 5746 5740 5742 5747 5750 5751 5749 5751 5753 5755 5757 5759 5760 5761 5760 5758 5758 5758 5757 5763 5763 5762 5763 5765
5813 5810 5806 5804 5799 5792 5792 5790 5786 5776 5772 5767 5764 5757 5749 5745 5745 5744 5742 5741 5739 5734 5730 5729 5728 5730 5730 5726 5727 5733 5737 5737 5739 5741 5744 5744 5745 5748 5748 5751 5750 5750 5748 5750 5750 5752 5754 5755 5758
5803 5798 5796 5791 5785 5777 5775 5775 5768 5763 5758 5750 5744 5737 5734 5728 5727 5728 5728 5725 5719 5715 5715 5715 5714 5712 5713 5713 5711 5713 5720 5723 5726 5727 5729 5730 5733 5736 5737 5739 5742 5739 5738 5737 5738 5742 5747 5748 5750
5789 5783 5778 5773 5769 5763 5756 5758 5752 5747 5740 5731 5725 5719 5713 5711 5708 5706 5705 5704 5700 5699 5697 5697 5697 5697 5696 5699 5698 5698 5701 5707 5710 5714 5715 5715 5720 5724 5726 5726 5730 5726 5729 5728 5729 5732 5738 5740 5743
5775 5768 5763 5757 5750 5745 5735 5725 5736 5725 5718 5714 5706 5699 5694 5691 5689 5687 5685 5684 5683 5682 5683 5682 5682 5683 5682 5683 5684 5685 5685 5690 5693 5698 5701 5703 5707 5709 5714 5716 5716 5719 5721 5720 5721 5722 5728 5733 5734
5758 5752 5747 5742 5736 5726 5723 5708 5710 5707 5698 5696 5684 5682 5675 5669 5667 5668 5667 5666 5667 5667 5668 5668 5668 5669 5671 5669 5670 5671 5674 5675 5678 5684 5689 5691 5692 5698 5703 5707 5708 5710 5709 5710 5712 5715 5722 5727 5730
5744 5737 5731 5724 5718 5711 5705 5689 5688 5683 5677 5669 5668 5662 5657 5655 5653 5651 5651 5652 5651 5651 5653 5653 5653 5657 5658 5659 5659 5660 5662 5664 5665 5671 5676 5679 5684 5688 5692 5696 5701 5701 5698 5704 5709 5709 5712 5719 5726
5726 5716 5705 5703 5698 5694 5685 5669 5663 5659 5654 5648 5643 5640 5639 5637 5636 5636 5635 5634 5633 5635 5634 5636 5638 5640 5645 5648 5648 5648 5651 5654 5655 5660 5665 5669 5675 5680 5683 5684 5688 5692 5696 5696 5699 5703 5704 5713 5719
5708 5697 5683 5671 5666 5661 5665 5650 5645 5638 5635 5631 5626 5624 5623 5623 5623 5622 5619 5617 5617 5618 5619 5617 5621 5625 5632 5637 5636 5639 5642 5644 5646 5651 5655 5660 5665 5670 5673 5676 5677 5682 5684 5678 5688 5693 5699 5709 5711
5696 5682 5670 5657 5654 5639 5639 5640 5626 5624 5620 5617 5615 5613 5611 5611 5610 5609 5608 5606 5605 5604 5607 5609 5613 5616 5622 5625 5625 5631 5634 5636 5639 5643 5647 5652 5656 5662 5663 5667 5669 5672 5669 5680 5684 5689 5696 5703 5706
5673 5661 5653 5645 5631 5622 5624 5618 5615 5609 5607 5606 5604 5604 5602 5600 5598 5598 5596 5596 5594 5594 5597 5601 5603 5606 5611 5615 5617 5622 5627 5629 5632 5636 5641 5645 5649 5654 5656 5659 5663 5666 5668 5672 5679 5685 5692 5696 5700
5660 5653 5643 5637 5624 5613 5608 5607 5606 5602 5599 5596 5592 5590 5591 5590 5588 5587 5588 5587 5585 5585 5586 5589 5593 5597 5603 5605 5606 5612 5618 5622 5625 5629 5635 5640 5643 5646 5648 5654 5659 5660 5663 5668 5674 5681 5687 5693 5695
5644 5635 5628 5616 5616 5608 5597 5594 5595 5589 5585 5582 5580 5576 5578 5577 5577 5574 5577 5579 5578 5577 5578 5580 5582 5587 5593 5597 5600 5603 5609 5615 5618 5622 5629 5633 5636 5639 5644 5648 5653 5655 5657 5662 5670 5679 5686 5687 5690
Wind_Speed
10 8 5 7 5 4 2 1 3 3 5 7 9 9 9 10 12 12 12 14 14 14 14 14 13 15 15 14 16 17 19 20 22 23 23 23 23 22 22 21 20 20 21 21 21 21 21 20 21
7 5 2 2 3 3 4 3 8 7 7 10 12 7 11 14 17 13 14 17 17 17 19 18 18 18 19 20 20 22 23 23 22 21 21 22 23 23 22 22 21 20 21 19 19 20 20 21 21
5 4 5 6 4 1 3 6 8 4 7 9 12 6 3 10 14 8 8 12 13 12 15 19 20 21 22 23 20 18 17 16 16 17 17 17 17 19 20 20 20 19 20 19 19 19 20 19 20
7 7 7 9 9 10 6 8 10 7 9 12 10 5 7 10 14 14 11 12 15 15 14 14 14 17 18 18 18 16 14 16 17 18 18 18 17 17 17 18 20 19 20 21 21 21 20 21 21
9 11 12 11 8 10 12 11 16 13 11 15 17 12 8 7 13 16 15 15 17 18 18 19 18 18 19 19 19 19 18 19 19 19 19 18 19 19 19 18 18 20 21 21 21 21 22 22 22
9 10 12 11 12 10 13 15 16 16 16 17 20 19 13 13 15 21 21 14 17 20 22 20 21 21 22 22 22 21 21 21 22 22 23 23 22 21 19 20 20 20 19 19 20 22 23 23 23
12 12 11 12 10 8 12 16 18 17 19 19 22 24 22 18 16 19 24 22 20 23 24 23 23 23 23 23 23 23 22 22 23 22 23 25 25 25 24 22 22 22 22 21 21 22 22 23 23
14 14 13 12 15 12 12 17 18 19 20 21 22 25 25 23 23 24 27 27 26 24 25 25 26 26 27 26 26 25 25 25 24 25 24 24 25 27 27 26 26 24 23 22 23 23 24 25 24
16 15 15 16 16 18 18 20 19 19 23 22 25 26 28 27 28 32 32 30 28 28 28 28 28 29 29 29 28 29 28 27 28 28 27 26 27 27 28 28 28 28 29 25 23 24 25 26 25
18 19 19 20 20 20 21 22 23 22 22 28 29 30 31 32 34 34 37 38 37 34 32 32 31 33 31 31 32 31 32 32 34 33 33 32 31 31 29 30 30 30 31 28 27 27 26 26 26
22 22 22 23 24 24 24 24 25 26 28 31 30 32 35 37 39 38 39 40 39 37 34 34 33 35 36 37 36 37 39 40 40 40 37 35 34 34 33 33 33 33 32 30 29 29 29 28 27
24 25 24 25 25 25 26 27 28 29 30 30 31 32 35 39 42 43 41 40 40 41 41 40 38 38 39 41 44 43 42 42 42 41 39 38 38 37 36 37 36 35 34 31 33 32 31 31 29
24 26 26 25 27 27 27 29 28 32 31 30 32 35 36 40 45 46 45 44 43 46 49 52 50 47 46 44 41 43 43 41 43 41 39 38 42 42 38 37 37 36 36 35 36 36 35 33 30
24 22 24 26 28 27 27 28 29 30 30 31 35 38 40 43 45 46 48 48 46 48 53 54 55 55 52 50 48 44 42 41 44 43 35 28 30 37 36 32 32 34 37 40 38 37 37 34 31
24 23 27 27 30 31 34 29 32 31 34 37 40 41 43 46 47 48 48 50 46 47 52 57 56 57 56 53 51 48 49 48 48 50 26 37 37 33 26 33 35 38 35 42 42 39 36 32 32
26 28 28 31 34 37 39 36 37 42 46 48 47 46 44 49 48 48 51 53 53 53 56 58 60 60 59 57 57 53 52 50 48 44 35 33 31 28 29 29 35 37 45 41 42 42 37 34 33
31 33 34 36 39 43 45 46 45 49 50 50 52 52 52 54 55 53 52 54 56 60 60 61 63 66 64 60 58 57 56 54 50 50 42 35 36 33 34 34 38 42 38 40 39 42 36 35 32
37 39 41 42 45 49 50 49 51 53 54 55 57 59 62 64 60 59 58 58 60 64 66 65 65 67 68 67 62 60 57 54 49 47 39 35 34 29 32 36 40 38 33 32 38 41 36 35 30
44 45 47 48 50 55 52 50 50 55 56 59 60 62 66 68 67 68 68 67 66 68 69 69 65 68 69 65 59 56 54 49 43 39 35 35 34 29 37 37 39 39 36 40 45 40 36 33 32
45 49 52 54 55 56 56 54 56 57 59 63 65 67 69 71 72 71 70 70 71 70 69 68 59 49 55 60 50 45 41 41 41 39 40 39 36 33 41 39 39 43 42 52 55 38 37 32 30
53 55 55 58 58 58 61 59 61 61 61 65 68 70 71 72 73 73 72 71 69 66 65 59 49 45 42 41 45 48 46 42 40 40 45 46 40 37 40 40 38 44 39 31 35 36 35 32 32
54 56 58 59 62 63 66 74 66 68 69 69 71 72 72 72 71 70 68 66 61 53 52 50 46 41 39 38 47 51 53 50 48 45 46 48 43 43 40 39 39 29 33 44 40 37 32 30 26
59 60 62 63 64 66 69 74 72 72 73 71 76 75 75 72 66 65 59 52 46 48 45 46 44 42 42 40 41 49 52 54 55 49 46 46 46 42 41 39 39 35 34 27 32 30 25 19 21
61 63 64 64 66 70 70 74 77 75 73 73 71 72 71 68 65 60 54 41 40 42 43 47 47 46 45 43 36 41 47 52 56 54 50 51 49 46 43 38 39 38 39 26 35 33 21 17 22
62 66 70 70 70 70 69 73 73 69 68 66 65 61 55 50 44 42 41 43 44 48 49 55 48 48 44 46 35 38 42 47 52 51 50 49 49 46 41 42 41 39 37 41 45 40 23 18 21
67 70 68 73 75 78 75 75 69 65 62 53 49 44 35 31 31 34 39 49 55 54 55 44 44 23 30 39 33 35 41 42 45 46 44 43 45 45 44 38 32 37 37 36 35 31 21 20 22
68 67 68 68 71 70 70 65 63 54 47 39 29 31 34 37 33 34 32 35 42 46 41 43 40 37 27 29 32 37 40 38 39 40 39 38 42 43 41 40 37 32 28 33 30 27 23 26 24
69 68 66 64 65 65 64 59 48 47 42 36 35 35 33 34 39 37 35 40 40 40 42 34 31 25 26 28 35 38 39 37 34 36 31 36 42 33 35 38 34 35 26 31 33 23 24 23 24
65 61 58 58 56 54 53 54 52 47 36 41 38 37 38 37 36 37 32 38 40 42 37 27 31 30 27 26 31 36 36 33 31 28 26 29 27 28 30 32 26 26 15 28 31 26 23 23 18
57 56 50 50 51 53 53 55 49 44 41 42 52 52 47 46 41 37 34 30 26 34 34 34 29 24 29 27 29 30 35 27 26 25 25 28 32 26 24 24 19 16 17 28 34 26 25 22 19
Wind_Direction
64 69 61 58 51 58 138 340 288 264 275 284 285 272 274 278 276 271 281 280 283 283 281 278 276 279 284 285 291 294 294 296 297 294 292 294 297 299 296 296 296 297 297 297 297 297 297 297 298
48 32 15 15 68 17 342 321 272 264 261 268 276 276 276 277 272 273 275 275 277 273 272 272 272 276 282 287 292 293 295 299 302 304 302 299 298 297 296 298 297 296 294 293 295 300 299 301 302
30 14 341 330 341 311 258 259 263 276 280 276 284 319 311 277 284 291 266 270 279 280 274 273 276 281 286 289 291 293 298 297 299 306 306 304 304 305 304 305 303 301 298 294 295 297 296 298 299
352 354 348 334 336 327 312 293 285 294 302 299 293 332 315 290 289 291 293 287 288 289 285 280 279 284 286 289 293 294 296 298 304 305 306 307 305 305 306 307 303 302 301 296 295 295 296 295 295
340 334 337 334 317 300 297 293 292 300 298 299 304 312 310 298 299 296 302 304 302 301 302 300 295 292 291 293 295 298 298 298 298 296 298 296 298 301 301 296 296 296 291 290 292 293 292 292 292
324 325 322 315 325 318 292 286 284 290 291 292 293 302 305 297 297 299 301 295 293 292 294 294 294 296 297 297 298 298 299 299 300 302 302 300 296 292 292 294 292 289 290 291 289 288 289 290 289
309 306 305 312 313 303 283 280 285 286 287 285 291 293 293 295 292 289 290 283 279 283 286 288 290 290 290 292 292 294 296 295 296 296 299 298 296 294 291 288 287 287 285 283 285 286 285 287 289
295 295 302 306 299 292 266 262 274 283 283 285 283 287 292 293 289 278 275 283 288 283 282 282 285 287 288 288 288 288 289 292 294 296 297 294 291 291 289 287 283 280 277 275 276 278 281 284 288
289 286 289 288 283 287 286 286 284 283 284 282 282 284 284 286 284 285 284 282 277 275 276 280 284 285 284 286 286 288 290 289 290 290 287 285 287 284 280 280 279 282 280 278 276 277 281 286 286
292 293 293 289 288 284 282 282 284 282 276 279 282 284 286 285 284 282 285 281 282 283 285 285 284 284 283 283 284 285 285 288 287 287 287 287 285 281 279 275 275 276 276 275 277 278 279 281 284
297 295 294 292 288 286 284 284 281 280 286 283 288 290 291 291 290 288 287 291 295 295 291 284 282 282 284 283 283 284 287 287 286 286 288 286 281 277 275 273 272 272 273 277 274 275 279 278 279
294 293 291 287 284 283 285 284 284 287 282 289 292 292 292 292 292 291 295 294 294 292 288 283 278 277 277 280 284 286 285 285 286 284 284 282 280 277 275 269 269 269 271 273 277 277 277 279 281
289 290 290 288 288 290 287 287 289 286 289 291 291 290 289 288 287 291 291 288 290 290 289 287 286 285 283 281 280 282 284 285 282 280 283 285 282 278 274 269 267 269 272 270 271 274 274 276 279
287 285 284 286 286 284 280 281 281 282 287 290 289 287 287 284 284 286 287 287 286 285 285 286 287 285 285 285 283 281 280 279 281 281 283 282 285 293 278 267 274 273 272 272 266 264 268 275 276
283 286 288 287 286 285 287 282 279 282 283 281 284 285 283 279 278 278 278 279 279 280 280 282 281 281 280 281 280 280 281 280 280 277 273 290 295 290 277 282 271 273 274 274 274 269 265 269 271
288 290 291 295 297 297 295 294 290 289 290 291 291 288 283 279 275 272 270 272 277 279 277 278 280 279 278 278 279 280 281 280 280 290 292 291 288 273 284 275 271 271 265 265 270 268 269 269 269
296 298 301 303 302 299 300 303 300 297 297 297 294 290 286 282 283 280 275 273 275 278 276 272 273 278 278 277 277 277 277 277 270 281 291 286 278 279 277 274 265 271 274 258 260 263 264 264 264
299 300 302 305 302 300 303 306 303 299 297 295 293 292 291 289 286 282 278 276 276 277 277 276 273 274 281 280 278 277 277 277 279 281 281 275 270 275 267 266 269 269 268 258 260 264 260 259 261
303 305 305 306 304 302 302 300 295 291 291 287 285 283 281 282 283 283 283 279 276 275 276 278 280 275 274 279 280 277 275 274 270 267 263 253 254 260 261 257 261 269 258 271 260 258 257 254 255
304 303 305 303 301 298 298 300 294 290 288 285 281 278 277 278 279 279 277 276 278 278 277 276 281 277 279 279 275 270 266 262 265 255 251 248 253 251 251 252 256 260 260 277 267 251 252 251 249
305 304 302 301 299 296 295 296 294 290 285 283 282 281 281 281 281 280 279 278 278 279 279 280 276 269 267 260 264 261 258 253 248 246 236 240 239 239 247 253 257 277 276 290 239 235 243 245 248
303 300 301 300 298 296 296 299 298 294 292 289 286 284 282 280 278 278 279 279 279 278 276 271 268 268 261 256 250 248 251 248 243 237 232 234 237 239 242 249 252 267 260 288 241 232 239 243 247
302 301 299 298 296 296 295 291 297 293 290 288 287 285 284 284 284 283 284 284 280 277 273 270 268 264 258 262 252 248 246 248 246 240 236 239 241 240 241 246 247 252 260 269 234 232 234 249 251
301 298 296 296 295 294 294 291 292 291 292 288 285 283 282 282 283 285 283 270 270 266 266 267 260 263 262 260 259 254 247 246 248 247 241 244 241 243 248 244 244 250 256 248 244 225 225 242 247
303 301 298 296 294 294 292 289 293 294 291 291 291 289 287 285 280 276 272 263 259 265 266 267 268 243 250 256 266 261 245 249 250 248 249 251 248 247 250 247 248 252 245 245 245 235 211 233 239
302 301 298 300 301 300 299 298 299 297 297 296 294 292 285 278 272 274 270 260 260 266 265 276 244 261 248 258 271 262 246 249 252 250 253 253 252 250 249 250 242 246 253 227 210 212 211 224 232
302 298 298 298 299 297 300 301 295 299 298 301 289 283 276 273 277 276 263 270 276 270 276 285 272 277 272 264 267 263 245 254 254 252 253 251 249 249 261 256 257 244 243 220 209 200 206 221 228
304 304 304 304 302 301 303 299 301 294 299 290 284 283 278 275 268 275 272 274 278 282 276 262 255 267 258 268 264 260 246 250 254 250 244 246 246 254 253 255 256 260 232 211 202 192 208 218 227
301 300 299 297 296 299 298 297 296 293 284 268 266 273 270 271 275 276 273 272 279 273 259 268 256 251 261 273 267 258 245 244 246 244 243 244 245 240 246 248 243 247 231 196 193 191 212 212 211
303 302 304 300 300 296 295 296 295 293 290 280 272 273 272 272 273 279 276 271 280 284 278 273 278 247 275 259 258 253 244 241 230 234 235 232 244 252 252 258 256 239 219 194 191 195 213 208 211